GW1087 Weather Reports


time (UTC)temp
F
wind
direction
speed
knots
gust
knots
rain 1hr
in
rain 24hr
in
rain mn
in
humidity
%
barometer
mb
20260906154505 93 11 0.0 2.6 0.00 0.00 0.00 60 1014.8
20260906153036 91 28 0.0 1.7 0.00 0.00 0.00 64 1014.9
20260906151504 90 72 0.9 1.7 0.00 0.00 0.00 65 1014.7
20260906150034 89 56 0.0 1.7 0.00 0.00 0.00 70 1014.8
20260906144554 87 84 0.0 0.9 0.00 0.00 0.00 70 1014.9
20260906143029 86 98 0.0 0.9 0.00 0.00 0.00 74 1015.0
20260906141508 84 91 0.0 1.7 0.00 0.00 0.00 75 1015.0
20260906140040 82 85 0.0 1.7 0.00 0.00 0.00 78 1015.1
20260906134557 80 108 0.0 0.9 0.00 0.00 0.00 83 1015.0
20260906133026 78 108 0.0 0.9 0.00 0.00 0.00 85 1015.0
20260906131544 76 214 0.0 0.0 0.00 0.00 0.00 89 1014.8
20260906130051 73 214 0.0 0.0 0.00 0.00 0.00 91 1014.6
20260906124503 72 214 0.0 0.0 0.00 0.00 0.00 92 1014.5
20260906123035 72 214 0.0 0.0 0.00 0.00 0.00 93 1014.6
20260906121533 71 214 0.0 0.0 0.00 0.00 0.00 93 1014.3
20260906120109 71 214 0.0 0.0 0.00 0.00 0.00 92 1014.2
20260906114506 72 214 0.0 0.0 0.00 0.00 0.00 92 1014.0
20260906113045 72 213 0.0 0.0 0.00 0.00 0.00 91 1013.9
20260906111507 73 228 0.0 0.0 0.00 0.00 0.00 90 1013.8
20260906110030 73 228 0.0 0.0 0.00 0.00 0.00 90 1013.7
20260906104547 73 228 0.0 0.0 0.00 0.00 0.00 90 1013.7
20260906103040 73 228 0.0 0.0 0.00 0.00 0.00 90 1013.7
20260906101524 73 228 0.0 0.0 0.00 0.00 0.00 90 1013.5
20260906100042 73 228 0.0 0.0 0.00 0.00 0.00 90 1013.5
20260906094604 73 228 0.0 0.0 0.00 0.00 0.00 89 1013.5
20260906093035 73 244 0.0 0.0 0.00 0.00 0.00 89 1013.3
20260906091543 73 207 0.0 0.9 0.00 0.00 0.00 89 1013.2
20260906090011 74 213 0.0 0.0 0.00 0.00 0.00 88 1012.9
20260906084511 74 213 0.0 0.0 0.00 0.00 0.00 88 1013.0
20260906083044 74 213 0.0 0.0 0.00 0.00 0.00 86 1013.1
20260906081536 75 214 0.0 0.0 0.00 0.00 0.00 85 1012.9
20260906074506 75 213 0.0 0.0 0.00 0.00 0.00 85 1013.1
20260906073041 75 213 0.0 0.0 0.00 0.00 0.00 85 1013.1
20260906071526 76 213 0.0 0.0 0.00 0.00 0.00 83 1013.3
20260906070056 76 213 0.0 0.0 0.00 0.00 0.00 82 1013.2
20260906064533 77 213 0.0 0.0 0.00 0.00 0.00 82 1013.3
20260906063054 77 213 0.0 0.0 0.00 0.00 0.00 80 1013.2
20260906061517 77 213 0.0 0.0 0.00 0.00 0.00 80 1013.4
20260906060047 77 213 0.0 0.0 0.00 0.00 0.00 80 1013.1
20260906054500 78 213 0.0 0.0 0.00 0.00 0.00 80 1013.3
20260906053001 78 213 0.0 0.0 0.00 0.00 0.00 79 1013.1
20260906051533 78 213 0.0 0.0 0.00 0.00 0.00 78 1012.8
20260906050050 78 213 0.0 0.0 0.00 0.00 0.00 80 1012.8
20260906044529 79 213 0.0 0.0 0.00 0.00 0.00 76 1012.7
20260906043050 80 213 0.0 0.0 0.00 0.00 0.00 74 1012.7
20260906041520 80 213 0.0 0.0 0.00 0.00 0.00 73 1012.8
20260906040009 80 213 0.0 0.0 0.00 0.00 0.00 75 1012.7
20260906034555 80 213 0.0 0.0 0.00 0.00 0.00 74 1012.9
20260906033027 81 213 0.0 0.0 0.00 0.00 0.00 72 1012.8
20260906031541 82 213 0.0 0.0 0.00 0.00 0.00 69 1012.7
20260906030009 83 213 0.0 0.0 0.00 0.00 0.00 68 1012.7
20260906024544 83 229 0.0 0.0 0.00 0.00 0.00 67 1012.6
20260906023057 85 229 0.0 0.0 0.00 0.00 0.00 64 1012.5
20260906021548 86 229 0.0 0.0 0.00 0.00 0.00 62 1012.1
20260906020002 87 229 0.0 0.0 0.00 0.00 0.00 61 1011.8
20260906014549 86 214 0.0 1.7 0.00 0.00 0.00 64 1011.7
20260906013055 87 208 0.9 2.6 0.00 0.00 0.00 62 1011.5
20260906011507 89 227 0.0 0.0 0.00 0.00 0.00 55 1011.1
20260906010040 90 227 0.0 0.0 0.00 0.00 0.00 56 1011.0
20260906004542 91 160 0.0 0.0 0.00 0.00 0.00 53 1011.0
20260906003111 92 160 0.0 0.0 0.00 0.00 0.00 51 1011.0
20260906001526 93 160 0.0 0.0 0.00 0.00 0.00 50 1011.0
20260906000038 94 160 0.0 0.0 0.00 0.00 0.00 48 1011.3
20260905234606 96 160 0.0 0.0 0.00 0.00 0.00 47 1011.2
20260905233025 97 160 0.0 0.0 0.00 0.00 0.00 45 1011.1
20260905231510 98 160 0.0 0.0 0.00 0.00 0.00 42 1011.1
20260905230042 99 169 0.0 0.0 0.00 0.00 0.00 41 1011.1
20260905224558 102 169 0.0 0.9 0.00 0.00 0.00 40 1011.1
20260905223027 103 168 0.0 0.9 0.00 0.00 0.00 39 1010.9
20260905221545 103 218 0.0 0.0 0.00 0.00 0.00 38 1011.0
20260905220006 101 338 0.0 1.7 0.00 0.00 0.00 38 1010.9
20260905214536 103 62 0.0 1.7 0.00 0.00 0.00 37 1011.2
20260905213041 103 273 0.0 2.6 0.00 0.00 0.00 37 1011.3
20260905211505 103 148 1.7 5.2 0.00 0.00 0.00 37 1011.5
20260905210036 102 158 0.0 3.5 0.00 0.00 0.00 40 1011.8
20260905204601 102 72 1.7 4.3 0.00 0.00 0.00 38 1012.0
20260905203022 102 91 0.0 2.6 0.00 0.00 0.00 39 1012.2
20260905201551 101 345 0.9 2.6 0.00 0.00 0.00 39 1012.4
20260905200027 102 322 0.0 3.5 0.00 0.00 0.00 40 1012.7
20260905194559 102 335 0.0 2.6 0.00 0.00 0.00 40 1012.7
20260905193024 100 344 0.0 3.5 0.00 0.00 0.00 42 1013.1
20260905191551 101 98 0.0 2.6 0.00 0.00 0.00 43 1013.4
20260905184533 99 234 0.9 2.6 0.00 0.00 0.00 45 1013.8
20260905183046 100 150 0.9 3.5 0.00 0.00 0.00 44 1014.2
20260905181547 99 59 0.0 5.2 0.00 0.00 0.00 49 1014.2
20260905180013 98 167 0.0 3.5 0.00 0.00 0.00 48 1014.4
20260905174543 98 94 0.9 4.3 0.00 0.00 0.00 48 1014.7
20260905173059 97 340 0.9 4.3 0.00 0.00 0.00 51 1014.7
20260905171529 97 248 0.9 4.3 0.00 0.00 0.00 53 1014.9
20260905170059 97 91 3.5 5.2 0.00 0.00 0.00 52 1015.1
20260905164537 96 167 0.9 5.2 0.00 0.00 0.00 56 1015.3
20260905163005 96 41 0.0 3.5 0.00 0.00 0.00 58 1015.3
20260905161535 94 130 0.9 3.5 0.00 0.00 0.00 59 1015.3
20260905160034 93 49 0.9 3.5 0.00 0.00 0.00 62 1015.6